Time,TemperatureF,DewpointF,PressureIn,WindDirection,WindDirectionDegrees,WindSpeedMPH,WindSpeedGustMPH,Humidity,HourlyPrecipIn,Conditions,Clouds,dailyrainin,SoftwareType,DateUTC
2013-01-09 00:00:00,31.0,24.0,30.54,SSE,157,1.0,2.0,77,0.00,,,0.00,TxWx,2013-01-09 05:00:00,
2013-01-09 00:05:00,31.0,24.0,30.54,South,180,1.0,1.0,78,0.00,,,0.00,TxWx,2013-01-09 05:05:00,
2013-01-09 00:07:00,31.0,24.0,30.54,South,180,1.0,1.0,78,0.00,,,0.00,TxWx,2013-01-09 05:07:00,
2013-01-09 00:12:00,31.0,24.0,30.54,SSE,157,1.0,1.0,78,0.00,,,0.00,TxWx,2013-01-09 05:12:00,
2013-01-09 00:15:00,31.0,24.0,30.53,South,180,1.0,1.0,78,0.00,,,0.00,TxWx,2013-01-09 05:15:00,
2013-01-09 00:20:00,31.0,24.0,30.53,SE,135,1.0,1.0,78,0.00,,,0.00,TxWx,2013-01-09 05:20:00,
2013-01-09 00:26:00,30.0,23.0,30.53,SSE,157,1.0,1.0,79,0.00,,,0.00,TxWx,2013-01-09 05:26:00,
2013-01-09 00:31:00,31.0,24.0,30.53,South,180,3.0,3.0,79,0.00,,,0.00,TxWx,2013-01-09 05:31:00,
2013-01-09 00:37:00,31.0,24.0,30.53,South,180,1.0,5.0,79,0.00,,,0.00,TxWx,2013-01-09 05:37:00,
2013-01-09 00:42:00,31.0,24.0,30.53,SE,135,1.0,3.0,78,0.00,,,0.00,TxWx,2013-01-09 05:42:00,
2013-01-09 00:47:00,32.0,25.0,30.53,SSE,157,2.0,2.0,78,0.00,,,0.00,TxWx,2013-01-09 05:47:00,
2013-01-09 00:53:00,32.0,25.0,30.53,SSW,202,2.0,3.0,78,0.00,,,0.00,TxWx,2013-01-09 05:53:00,
2013-01-09 00:59:00,32.0,25.0,30.52,SSE,157,2.0,3.0,78,0.00,,,0.00,TxWx,2013-01-09 05:59:00,
2013-01-09 01:04:00,32.0,25.0,30.52,SSE,157,1.0,2.0,78,0.00,,,0.00,TxWx,2013-01-09 06:04:00,
2013-01-09 01:09:00,32.0,25.0,30.52,SSE,157,1.0,2.0,77,0.00,,,0.00,TxWx,2013-01-09 06:09:00,
2013-01-09 01:15:00,32.0,24.0,30.52,ESE,112,2.0,3.0,77,0.00,,,0.00,TxWx,2013-01-09 06:15:00,
2013-01-09 01:20:00,32.0,25.0,30.52,South,180,2.0,3.0,77,0.00,,,0.00,TxWx,2013-01-09 06:20:00,
2013-01-09 01:26:00,33.0,26.0,30.52,SSE,157,2.0,3.0,77,0.00,,,0.00,TxWx,2013-01-09 06:26:00,
2013-01-09 01:31:00,33.0,26.0,30.51,SSW,202,2.0,3.0,77,0.00,,,0.00,TxWx,2013-01-09 06:31:00,
2013-01-09 01:36:00,33.0,26.0,30.51,SSW,202,1.0,2.0,77,0.00,,,0.00,TxWx,2013-01-09 06:36:00,
2013-01-09 01:42:00,33.0,26.0,30.52,SSE,157,2.0,4.0,77,0.00,,,0.00,TxWx,2013-01-09 06:42:00,
2013-01-09 01:47:00,33.0,25.0,30.52,SSE,157,1.0,3.0,77,0.00,,,0.00,TxWx,2013-01-09 06:47:00,
2013-01-09 01:53:00,34.0,27.0,30.52,South,180,2.0,4.0,77,0.00,,,0.00,TxWx,2013-01-09 06:53:00,
2013-01-09 01:58:00,34.0,26.0,30.52,South,180,2.0,3.0,77,0.00,,,0.00,TxWx,2013-01-09 06:58:00,
2013-01-09 02:03:00,34.0,27.0,30.52,South,180,1.0,4.0,77,0.00,,,0.00,TxWx,2013-01-09 07:03:00,
2013-01-09 02:09:00,34.0,26.0,30.52,SSW,202,2.0,3.0,76,0.00,,,0.00,TxWx,2013-01-09 07:09:00,
2013-01-09 02:14:00,34.0,26.0,30.52,SE,135,1.0,2.0,76,0.00,,,0.00,TxWx,2013-01-09 07:14:00,
2013-01-09 02:19:00,34.0,26.0,30.52,South,180,1.0,3.0,77,0.00,,,0.00,TxWx,2013-01-09 07:19:00,
2013-01-09 02:25:00,34.0,26.0,30.52,SE,135,2.0,3.0,77,0.00,,,0.00,TxWx,2013-01-09 07:25:00,
2013-01-09 02:30:00,34.0,27.0,30.51,South,180,1.0,3.0,77,0.00,,,0.00,TxWx,2013-01-09 07:30:00,
2013-01-09 02:36:00,33.0,26.0,30.51,South,180,3.0,3.0,78,0.00,,,0.00,TxWx,2013-01-09 07:36:00,
2013-01-09 02:41:00,33.0,26.0,30.51,SSE,157,1.0,3.0,78,0.00,,,0.00,TxWx,2013-01-09 07:41:00,
2013-01-09 02:46:00,33.0,26.0,30.51,SW,225,2.0,3.0,79,0.00,,,0.00,TxWx,2013-01-09 07:46:00,
2013-01-09 02:52:00,33.0,26.0,30.51,SSW,202,2.0,4.0,79,0.00,,,0.00,TxWx,2013-01-09 07:52:00,
2013-01-09 02:57:00,34.0,27.0,30.50,South,180,2.0,3.0,78,0.00,,,0.00,TxWx,2013-01-09 07:57:00,
2013-01-09 03:02:00,34.0,27.0,30.50,SSE,157,2.0,5.0,79,0.00,,,0.00,TxWx,2013-01-09 08:02:00,
2013-01-09 03:08:00,34.0,27.0,30.50,South,180,1.0,3.0,78,0.00,,,0.00,TxWx,2013-01-09 08:08:00,
2013-01-09 03:13:00,34.0,27.0,30.50,SE,135,2.0,3.0,78,0.00,,,0.00,TxWx,2013-01-09 08:13:00,
2013-01-09 03:18:00,33.0,26.0,30.49,SE,135,3.0,3.0,78,0.00,,,0.00,TxWx,2013-01-09 08:18:00,
2013-01-09 03:24:00,33.0,26.0,30.49,SSE,157,2.0,2.0,79,0.00,,,0.00,TxWx,2013-01-09 08:24:00,
2013-01-09 03:29:00,33.0,26.0,30.48,SE,135,2.0,3.0,79,0.00,,,0.00,TxWx,2013-01-09 08:29:00,
2013-01-09 03:35:00,33.0,27.0,30.48,SE,135,2.0,5.0,80,0.00,,,0.00,TxWx,2013-01-09 08:35:00,
2013-01-09 03:40:00,33.0,27.0,30.48,SE,135,2.0,3.0,80,0.00,,,0.00,TxWx,2013-01-09 08:40:00,
2013-01-09 03:45:00,33.0,27.0,30.48,SSE,157,3.0,3.0,81,0.00,,,0.00,TxWx,2013-01-09 08:45:00,
2013-01-09 03:51:00,32.0,26.0,30.48,SSE,157,1.0,3.0,81,0.00,,,0.00,TxWx,2013-01-09 08:51:00,
2013-01-09 03:56:00,32.0,26.0,30.47,SE,135,1.0,3.0,81,0.00,,,0.00,TxWx,2013-01-09 08:56:00,
2013-01-09 04:02:00,32.0,26.0,30.47,ESE,112,2.0,3.0,82,0.00,,,0.00,TxWx,2013-01-09 09:02:00,
2013-01-09 04:07:00,32.0,26.0,30.47,South,180,2.0,3.0,82,0.00,,,0.00,TxWx,2013-01-09 09:07:00,
2013-01-09 04:12:00,32.0,26.0,30.46,South,180,2.0,3.0,82,0.00,,,0.00,TxWx,2013-01-09 09:12:00,
2013-01-09 04:18:00,32.0,26.0,30.46,South,180,2.0,5.0,82,0.00,,,0.00,TxWx,2013-01-09 09:18:00,
2013-01-09 04:23:00,33.0,27.0,30.46,ESE,112,1.0,3.0,82,0.00,,,0.00,TxWx,2013-01-09 09:23:00,
2013-01-09 04:29:00,33.0,27.0,30.46,South,180,1.0,1.0,81,0.00,,,0.00,TxWx,2013-01-09 09:29:00,
2013-01-09 04:34:00,33.0,27.0,30.46,ESE,112,3.0,3.0,82,0.00,,,0.00,TxWx,2013-01-09 09:34:00,
2013-01-09 04:40:00,33.0,27.0,30.45,SSE,157,2.0,6.0,81,0.00,,,0.00,TxWx,2013-01-09 09:40:00,
2013-01-09 04:45:00,33.0,27.0,30.45,SSE,157,2.0,3.0,80,0.00,,,0.00,TxWx,2013-01-09 09:45:00,
2013-01-09 04:50:00,33.0,27.0,30.45,SE,135,1.0,3.0,81,0.00,,,0.00,TxWx,2013-01-09 09:50:00,
2013-01-09 04:55:00,33.0,27.0,30.45,South,180,2.0,4.0,81,0.00,,,0.00,TxWx,2013-01-09 09:55:00,
2013-01-09 05:02:00,33.0,27.0,30.44,SE,135,3.0,3.0,81,0.00,,,0.00,TxWx,2013-01-09 10:02:00,
2013-01-09 05:07:00,33.0,27.0,30.44,SE,135,3.0,4.0,81,0.00,,,0.00,TxWx,2013-01-09 10:07:00,
2013-01-09 05:12:00,33.0,27.0,30.44,South,180,1.0,3.0,81,0.00,,,0.00,TxWx,2013-01-09 10:12:00,
2013-01-09 05:18:00,33.0,27.0,30.44,SE,135,2.0,3.0,81,0.00,,,0.00,TxWx,2013-01-09 10:18:00,
2013-01-09 05:23:00,33.0,27.0,30.44,SSE,157,2.0,3.0,81,0.00,,,0.00,TxWx,2013-01-09 10:23:00,
2013-01-09 05:28:00,33.0,27.0,30.43,ESE,112,1.0,3.0,81,0.00,,,0.00,TxWx,2013-01-09 10:28:00,
2013-01-09 05:33:00,33.0,27.0,30.43,SE,135,1.0,3.0,81,0.00,,,0.00,TxWx,2013-01-09 10:33:00,
2013-01-09 05:38:00,34.0,28.0,30.43,SW,225,1.0,7.0,81,0.00,,,0.00,TxWx,2013-01-09 10:38:00,
2013-01-09 05:44:00,36.0,29.0,30.43,South,180,5.0,9.0,79,0.00,,,0.00,TxWx,2013-01-09 10:44:00,
2013-01-09 05:49:00,38.0,29.0,30.43,SSW,202,6.0,6.0,74,0.00,,,0.00,TxWx,2013-01-09 10:49:00,
2013-01-09 05:55:00,39.0,29.0,30.43,SSW,202,8.0,12.0,70,0.00,,,0.00,TxWx,2013-01-09 10:55:00,
2013-01-09 06:00:00,39.0,28.0,30.43,WSW,247,7.0,13.0,68,0.00,,,0.00,TxWx,2013-01-09 11:00:00,
2013-01-09 06:05:00,39.0,28.0,30.43,SSW,202,8.0,12.0,67,0.00,,,0.00,TxWx,2013-01-09 11:05:00,
2013-01-09 06:11:00,39.0,28.0,30.43,WSW,247,6.0,14.0,67,0.00,,,0.00,TxWx,2013-01-09 11:11:00,
2013-01-09 06:16:00,40.0,28.0,30.43,SW,225,10.0,14.0,66,0.00,,,0.00,TxWx,2013-01-09 11:16:00,
2013-01-09 06:21:00,40.0,28.0,30.43,SSW,202,12.0,15.0,65,0.00,,,0.00,TxWx,2013-01-09 11:21:00,
2013-01-09 06:26:00,40.0,28.0,30.43,South,180,10.0,15.0,64,0.00,,,0.00,TxWx,2013-01-09 11:26:00,
2013-01-09 06:33:00,40.0,28.0,30.42,WSW,247,6.0,11.0,64,0.00,,,0.00,TxWx,2013-01-09 11:33:00,
2013-01-09 06:38:00,40.0,28.0,30.42,South,180,5.0,10.0,64,0.00,,,0.00,TxWx,2013-01-09 11:38:00,
2013-01-09 06:43:00,40.0,27.0,30.42,SW,225,7.0,12.0,63,0.00,,,0.00,TxWx,2013-01-09 11:43:00,
2013-01-09 06:48:00,40.0,28.0,30.41,SW,225,6.0,10.0,64,0.00,,,0.00,TxWx,2013-01-09 11:48:00,
2013-01-09 06:53:00,40.0,27.0,30.41,SW,225,8.0,13.0,63,0.00,,,0.00,TxWx,2013-01-09 11:53:00,
2013-01-09 06:59:00,40.0,28.0,30.40,SSW,202,6.0,7.0,64,0.00,,,0.00,TxWx,2013-01-09 11:59:00,
2013-01-09 07:04:00,40.0,27.0,30.39,SSW,202,6.0,8.0,63,0.00,,,0.00,TxWx,2013-01-09 12:04:00,
2013-01-09 07:11:00,40.0,27.0,30.38,SSW,202,6.0,9.0,63,0.00,,,0.00,TxWx,2013-01-09 12:11:00,
2013-01-09 07:16:00,40.0,28.0,30.37,SSE,157,5.0,8.0,64,0.00,,,0.00,TxWx,2013-01-09 12:16:00,
2013-01-09 07:21:00,40.0,28.0,30.38,SSW,202,2.0,5.0,64,0.00,,,0.00,TxWx,2013-01-09 12:21:00,
2013-01-09 07:27:00,40.0,28.0,30.38,SSW,202,6.0,9.0,64,0.00,,,0.00,TxWx,2013-01-09 12:27:00,
2013-01-09 07:33:00,40.0,27.0,30.38,SSE,157,3.0,9.0,63,0.00,,,0.00,TxWx,2013-01-09 12:33:00,
2013-01-09 07:38:00,41.0,28.0,30.38,SSW,202,5.0,13.0,62,0.00,,,0.00,TxWx,2013-01-09 12:38:00,
2013-01-09 07:44:00,41.0,28.0,30.38,South,180,6.0,8.0,61,0.00,,,0.00,TxWx,2013-01-09 12:44:00,
2013-01-09 07:49:00,42.0,28.0,30.37,SW,225,11.0,13.0,59,0.00,,,0.00,TxWx,2013-01-09 12:49:00,
2013-01-09 07:54:00,42.0,27.0,30.37,South,180,5.0,14.0,58,0.00,,,0.00,TxWx,2013-01-09 12:54:00,
2013-01-09 08:00:00,42.0,27.0,30.37,WSW,247,4.0,15.0,58,0.00,,,0.00,TxWx,2013-01-09 13:00:00,
2013-01-09 08:05:00,42.0,27.0,30.36,SSW,202,6.0,16.0,58,0.00,,,0.00,TxWx,2013-01-09 13:05:00,
2013-01-09 08:11:00,42.0,27.0,30.37,SW,225,10.0,13.0,58,0.00,,,0.00,TxWx,2013-01-09 13:11:00,
2013-01-09 08:17:00,42.0,27.0,30.35,South,180,10.0,11.0,59,0.00,,,0.00,TxWx,2013-01-09 13:17:00,
2013-01-09 08:22:00,42.0,27.0,30.36,South,180,11.0,14.0,59,0.00,,,0.00,TxWx,2013-01-09 13:22:00,
2013-01-09 08:28:00,42.0,27.0,30.36,SW,225,8.0,19.0,58,0.00,,,0.00,TxWx,2013-01-09 13:28:00,
2013-01-09 08:33:00,42.0,27.0,30.36,SSW,202,5.0,12.0,58,0.00,,,0.00,TxWx,2013-01-09 13:33:00,
2013-01-09 08:38:00,42.0,27.0,30.37,SSW,202,6.0,11.0,58,0.00,,,0.00,TxWx,2013-01-09 13:38:00,
2013-01-09 08:44:00,43.0,28.0,30.37,SSW,202,17.0,19.0,58,0.00,,,0.00,TxWx,2013-01-09 13:44:00,
2013-01-09 08:49:00,43.0,28.0,30.36,SSW,202,8.0,16.0,58,0.00,,,0.00,TxWx,2013-01-09 13:49:00,
2013-01-09 08:55:00,42.0,27.0,30.36,WSW,247,9.0,13.0,59,0.00,,,0.00,TxWx,2013-01-09 13:55:00,
2013-01-09 09:00:00,42.0,28.0,30.35,SSW,202,9.0,12.0,59,0.00,,,0.00,TxWx,2013-01-09 14:00:00,
2013-01-09 09:05:00,43.0,28.0,30.35,SSW,202,6.0,16.0,58,0.00,,,0.00,TxWx,2013-01-09 14:05:00,
2013-01-09 09:10:00,43.0,28.0,30.35,SW,225,5.0,11.0,59,0.00,,,0.00,TxWx,2013-01-09 14:10:00,
2013-01-09 09:16:00,42.0,27.0,30.35,SSW,202,11.0,14.0,58,0.00,,,0.00,TxWx,2013-01-09 14:16:00,
2013-01-09 09:21:00,43.0,28.0,30.35,SW,225,11.0,16.0,58,0.00,,,0.00,TxWx,2013-01-09 14:21:00,
2013-01-09 09:26:00,43.0,28.0,30.35,SW,225,7.0,18.0,58,0.00,,,0.00,TxWx,2013-01-09 14:26:00,
2013-01-09 09:32:00,43.0,28.0,30.35,SSW,202,8.0,14.0,58,0.00,,,0.00,TxWx,2013-01-09 14:32:00,
2013-01-09 09:37:00,42.0,27.0,30.34,SSW,202,9.0,15.0,59,0.00,,,0.00,TxWx,2013-01-09 14:37:00,
2013-01-09 09:42:00,43.0,29.0,30.34,SSW,202,8.0,18.0,59,0.00,,,0.00,TxWx,2013-01-09 14:42:00,
2013-01-09 09:47:00,43.0,29.0,30.34,SSW,202,11.0,14.0,59,0.00,,,0.00,TxWx,2013-01-09 14:47:00,
2013-01-09 09:53:00,43.0,29.0,30.33,SW,225,6.0,15.0,59,0.00,,,0.00,TxWx,2013-01-09 14:53:00,
2013-01-09 09:58:00,43.0,29.0,30.32,SSW,202,10.0,25.0,60,0.00,,,0.00,TxWx,2013-01-09 14:58:00,
2013-01-09 10:03:00,43.0,29.0,30.33,WSW,247,6.0,15.0,60,0.00,,,0.00,TxWx,2013-01-09 15:03:00,
2013-01-09 10:09:00,44.0,30.0,30.33,SW,225,17.0,19.0,61,0.00,,,0.00,TxWx,2013-01-09 15:09:00,
2013-01-09 10:14:00,43.0,30.0,30.32,SW,225,13.0,18.0,63,0.00,,,0.00,TxWx,2013-01-09 15:14:00,
2013-01-09 10:20:00,44.0,33.0,30.32,SSW,202,11.0,19.0,64,0.00,,,0.00,TxWx,2013-01-09 15:20:00,
2013-01-09 10:25:00,44.0,32.0,30.31,SW,225,10.0,18.0,64,0.00,,,0.00,TxWx,2013-01-09 15:25:00,
2013-01-09 10:31:00,44.0,33.0,30.32,SSW,202,14.0,14.0,64,0.00,,,0.00,TxWx,2013-01-09 15:31:00,
2013-01-09 10:36:00,44.0,32.0,30.32,SW,225,17.0,22.0,64,0.00,,,0.00,TxWx,2013-01-09 15:36:00,
2013-01-09 10:41:00,44.0,33.0,30.32,SW,225,13.0,19.0,65,0.00,,,0.00,TxWx,2013-01-09 15:41:00,
2013-01-09 10:46:00,44.0,33.0,30.31,WSW,247,11.0,15.0,66,0.00,,,0.00,TxWx,2013-01-09 15:46:00,
2013-01-09 10:52:00,44.0,34.0,30.31,SSW,202,7.0,14.0,67,0.00,,,0.00,TxWx,2013-01-09 15:52:00,
2013-01-09 10:57:00,44.0,34.0,30.31,SSW,202,14.0,19.0,67,0.00,,,0.00,TxWx,2013-01-09 15:57:00,
2013-01-09 11:03:00,43.0,33.0,30.31,SW,225,13.0,18.0,69,0.00,,,0.00,TxWx,2013-01-09 16:03:00,
2013-01-09 11:08:00,43.0,34.0,30.31,SW,225,10.0,12.0,70,0.00,,,0.00,TxWx,2013-01-09 16:08:00,
2013-01-09 11:14:00,43.0,35.0,30.30,SW,225,14.0,17.0,73,0.00,,,0.00,TxWx,2013-01-09 16:14:00,
2013-01-09 11:19:00,43.0,35.0,30.30,SW,225,15.0,19.0,74,0.00,,,0.00,TxWx,2013-01-09 16:19:00,
2013-01-09 11:24:00,43.0,35.0,30.30,SSW,202,17.0,22.0,74,0.00,,,0.00,TxWx,2013-01-09 16:24:00,
2013-01-09 11:29:00,43.0,35.0,30.29,SW,225,12.0,21.0,74,0.00,,,0.00,TxWx,2013-01-09 16:29:00,
2013-01-09 11:35:00,43.0,35.0,30.30,SW,225,9.0,23.0,75,0.00,,,0.00,TxWx,2013-01-09 16:35:00,
2013-01-09 11:40:00,43.0,35.0,30.29,SW,225,13.0,23.0,75,0.00,,,0.00,TxWx,2013-01-09 16:40:00,
2013-01-09 11:45:00,43.0,35.0,30.28,SW,225,26.0,26.0,75,0.00,,,0.00,TxWx,2013-01-09 16:45:00,
2013-01-09 11:51:00,43.0,35.0,30.28,SW,225,8.0,18.0,75,0.00,,,0.00,TxWx,2013-01-09 16:51:00,
2013-01-09 11:56:00,43.0,36.0,30.27,SSW,202,14.0,21.0,75,0.00,,,0.00,TxWx,2013-01-09 16:56:00,
2013-01-09 12:02:00,43.0,36.0,30.27,SW,225,13.0,24.0,75,0.00,,,0.00,TxWx,2013-01-09 17:02:00,
2013-01-09 12:07:00,43.0,36.0,30.27,WSW,247,15.0,27.0,75,0.00,,,0.00,TxWx,2013-01-09 17:07:00,
2013-01-09 12:12:00,44.0,36.0,30.27,SSW,202,16.0,24.0,75,0.00,,,0.00,TxWx,2013-01-09 17:12:00,
2013-01-09 12:17:00,44.0,36.0,30.27,SSW,202,19.0,25.0,75,0.00,,,0.00,TxWx,2013-01-09 17:17:00,
2013-01-09 12:23:00,44.0,36.0,30.27,SW,225,21.0,26.0,75,0.00,,,0.00,TxWx,2013-01-09 17:23:00,
2013-01-09 12:28:00,44.0,36.0,30.27,SSW,202,13.0,26.0,74,0.00,,,0.00,TxWx,2013-01-09 17:28:00,
2013-01-09 12:33:00,44.0,36.0,30.26,WSW,247,18.0,27.0,73,0.00,,,0.00,TxWx,2013-01-09 17:33:00,
2013-01-09 12:39:00,44.0,36.0,30.26,WSW,247,18.0,24.0,73,0.00,,,0.00,TxWx,2013-01-09 17:39:00,
2013-01-09 12:44:00,44.0,36.0,30.25,WSW,247,31.0,31.0,73,0.00,,,0.00,TxWx,2013-01-09 17:44:00,
2013-01-09 12:49:00,45.0,37.0,30.26,SW,225,12.0,24.0,72,0.00,,,0.00,TxWx,2013-01-09 17:49:00,
2013-01-09 12:55:00,44.0,36.0,30.26,WSW,247,18.0,27.0,72,0.00,,,0.00,TxWx,2013-01-09 17:55:00,
2013-01-09 13:00:00,45.0,37.0,30.26,WSW,247,15.0,25.0,72,0.00,,,0.00,TxWx,2013-01-09 18:00:00,
2013-01-09 13:05:00,44.0,36.0,30.26,SW,225,27.0,31.0,72,0.00,,,0.00,TxWx,2013-01-09 18:05:00,
2013-01-09 13:11:00,44.0,36.0,30.26,South,180,20.0,26.0,73,0.00,,,0.00,TxWx,2013-01-09 18:11:00,
2013-01-09 13:16:00,44.0,36.0,30.27,WSW,247,21.0,31.0,72,0.00,,,0.00,TxWx,2013-01-09 18:16:00,
2013-01-09 13:21:00,44.0,36.0,30.26,SSW,202,25.0,26.0,73,0.00,,,0.00,TxWx,2013-01-09 18:21:00,
2013-01-09 13:27:00,44.0,36.0,30.26,SW,225,13.0,18.0,73,0.00,,,0.00,TxWx,2013-01-09 18:27:00,
2013-01-09 13:32:00,44.0,36.0,30.26,SW,225,13.0,26.0,73,0.00,,,0.00,TxWx,2013-01-09 18:32:00,
2013-01-09 13:37:00,44.0,36.0,30.27,WSW,247,16.0,20.0,73,0.00,,,0.00,TxWx,2013-01-09 18:37:00,
2013-01-09 13:41:00,44.0,36.0,30.27,SW,225,16.0,24.0,74,0.00,,,0.00,TxWx,2013-01-09 18:41:00,
2013-01-09 13:43:00,44.0,36.0,30.27,SW,225,18.0,25.0,74,0.00,,,0.00,TxWx,2013-01-09 18:43:00,
2013-01-09 13:44:00,44.0,36.0,30.27,SSW,202,20.0,27.0,74,0.00,,,0.00,TxWx,2013-01-09 18:44:00,
2013-01-09 13:46:00,44.0,36.0,30.27,SW,225,12.0,29.0,74,0.00,,,0.00,TxWx,2013-01-09 18:46:00,
2013-01-09 13:47:00,44.0,36.0,30.27,SSW,202,15.0,23.0,74,0.00,,,0.00,TxWx,2013-01-09 18:47:00,
2013-01-09 13:48:00,44.0,36.0,30.27,SW,225,12.0,38.0,74,0.00,,,0.00,TxWx,2013-01-09 18:48:00,
2013-01-09 13:50:00,43.0,35.0,30.27,SW,225,18.0,29.0,74,0.00,,,0.00,TxWx,2013-01-09 18:50:00,
2013-01-09 13:53:00,43.0,35.0,30.27,WSW,247,14.0,28.0,75,0.00,,,0.00,TxWx,2013-01-09 18:53:00,
2013-01-09 13:54:00,43.0,36.0,30.27,WSW,247,23.0,29.0,75,0.00,,,0.00,TxWx,2013-01-09 18:54:00,
2013-01-09 13:59:00,43.0,36.0,30.28,SW,225,20.0,24.0,75,0.00,,,0.00,TxWx,2013-01-09 18:59:00,
2013-01-09 14:04:00,43.0,36.0,30.28,SW,225,13.0,23.0,75,0.00,,,0.00,TxWx,2013-01-09 19:04:00,
2013-01-09 14:10:00,43.0,36.0,30.28,SW,225,16.0,31.0,76,0.00,,,0.00,TxWx,2013-01-09 19:10:00,
2013-01-09 14:15:00,43.0,36.0,30.28,West,270,10.0,27.0,76,0.00,,,0.00,TxWx,2013-01-09 19:15:00,
2013-01-09 14:20:00,43.0,36.0,30.29,WSW,247,12.0,27.0,76,0.00,,,0.00,TxWx,2013-01-09 19:20:00,
2013-01-09 14:26:00,42.0,35.0,30.29,WSW,247,12.0,21.0,77,0.00,,,0.00,TxWx,2013-01-09 19:26:00,
2013-01-09 14:31:00,42.0,35.0,30.29,SW,225,7.0,23.0,77,0.00,,,0.00,TxWx,2013-01-09 19:31:00,
2013-01-09 14:37:00,42.0,35.0,30.29,WSW,247,8.0,16.0,77,0.00,,,0.00,TxWx,2013-01-09 19:37:00,
2013-01-09 14:42:00,42.0,35.0,30.30,WSW,247,21.0,21.0,78,0.00,,,0.00,TxWx,2013-01-09 19:42:00,
2013-01-09 14:48:00,42.0,35.0,30.30,SW,225,18.0,25.0,78,0.00,,,0.00,TxWx,2013-01-09 19:48:00,
2013-01-09 14:53:00,42.0,35.0,30.30,WSW,247,14.0,21.0,78,0.00,,,0.00,TxWx,2013-01-09 19:53:00,
2013-01-09 14:59:00,42.0,36.0,30.30,SW,225,13.0,21.0,78,0.00,,,0.00,TxWx,2013-01-09 19:59:00,
2013-01-09 15:04:00,42.0,36.0,30.31,SW,225,12.0,23.0,79,0.00,,,0.00,TxWx,2013-01-09 20:04:00,
2013-01-09 15:09:00,41.0,35.0,30.31,SW,225,10.0,19.0,79,0.00,,,0.00,TxWx,2013-01-09 20:09:00,
2013-01-09 15:15:00,41.0,35.0,30.32,SW,225,8.0,13.0,79,0.00,,,0.00,TxWx,2013-01-09 20:15:00,
2013-01-09 15:20:00,41.0,35.0,30.32,West,270,6.0,18.0,80,0.00,,,0.00,TxWx,2013-01-09 20:20:00,
2013-01-09 15:26:00,41.0,35.0,30.32,West,270,6.0,18.0,80,0.00,,,0.00,TxWx,2013-01-09 20:26:00,
2013-01-09 15:31:00,41.0,35.0,30.32,WNW,292,6.0,22.0,80,0.00,,,0.00,TxWx,2013-01-09 20:31:00,
2013-01-09 15:36:00,41.0,35.0,30.33,West,270,14.0,21.0,80,0.00,,,0.00,TxWx,2013-01-09 20:36:00,
2013-01-09 15:42:00,41.0,35.0,30.33,SSW,202,19.0,24.0,80,0.00,,,0.00,TxWx,2013-01-09 20:42:00,
2013-01-09 15:47:00,41.0,35.0,30.33,SW,225,8.0,13.0,80,0.00,,,0.00,TxWx,2013-01-09 20:47:00,
2013-01-09 15:53:00,41.0,35.0,30.33,WSW,247,12.0,21.0,79,0.00,,,0.00,TxWx,2013-01-09 20:53:00,
2013-01-09 15:59:00,41.0,35.0,30.33,WSW,247,5.0,15.0,80,0.00,,,0.00,TxWx,2013-01-09 20:59:00,
2013-01-09 16:05:00,41.0,35.0,30.33,SW,225,12.0,20.0,80,0.00,,,0.00,TxWx,2013-01-09 21:05:00,
2013-01-09 16:10:00,41.0,35.0,30.34,WSW,247,10.0,21.0,80,0.00,,,0.00,TxWx,2013-01-09 21:10:00,
2013-01-09 16:15:00,41.0,35.0,30.34,SW,225,8.0,23.0,80,0.00,,,0.00,TxWx,2013-01-09 21:15:00,
2013-01-09 16:21:00,40.0,34.0,30.34,WSW,247,8.0,18.0,80,0.00,,,0.00,TxWx,2013-01-09 21:21:00,
2013-01-09 16:26:00,40.0,34.0,30.34,SW,225,18.0,22.0,81,0.00,,,0.00,TxWx,2013-01-09 21:26:00,
2013-01-09 16:31:00,40.0,35.0,30.34,West,270,18.0,21.0,81,0.00,,,0.00,TxWx,2013-01-09 21:31:00,
2013-01-09 16:37:00,40.0,35.0,30.35,SW,225,6.0,18.0,81,0.00,,,0.00,TxWx,2013-01-09 21:37:00,
2013-01-09 16:42:00,40.0,35.0,30.35,WSW,247,8.0,14.0,81,0.00,,,0.00,TxWx,2013-01-09 21:42:00,
2013-01-09 16:47:00,40.0,35.0,30.35,WSW,247,14.0,23.0,81,0.00,,,0.00,TxWx,2013-01-09 21:47:00,
2013-01-09 16:53:00,40.0,35.0,30.36,WSW,247,14.0,22.0,82,0.00,,,0.00,TxWx,2013-01-09 21:53:00,
2013-01-09 16:58:00,40.0,35.0,30.36,SW,225,9.0,19.0,82,0.00,,,0.00,TxWx,2013-01-09 21:58:00,
2013-01-09 17:03:00,40.0,35.0,30.36,SW,225,11.0,21.0,82,0.00,,,0.00,TxWx,2013-01-09 22:03:00,
2013-01-09 17:09:00,40.0,35.0,30.36,SW,225,21.0,21.0,82,0.00,,,0.00,TxWx,2013-01-09 22:09:00,
2013-01-09 17:14:00,40.0,35.0,30.36,SW,225,12.0,18.0,82,0.00,,,0.00,TxWx,2013-01-09 22:14:00,
2013-01-09 17:19:00,40.0,35.0,30.36,SW,225,25.0,26.0,81,0.00,,,0.00,TxWx,2013-01-09 22:19:00,
2013-01-09 17:24:00,40.0,34.0,30.37,SW,225,16.0,18.0,81,0.00,,,0.00,TxWx,2013-01-09 22:24:00,
2013-01-09 17:29:00,40.0,34.0,30.37,WSW,247,10.0,24.0,81,0.00,,,0.00,TxWx,2013-01-09 22:29:00,
2013-01-09 17:35:00,40.0,34.0,30.37,SW,225,6.0,19.0,80,0.00,,,0.00,TxWx,2013-01-09 22:35:00,
2013-01-09 17:40:00,40.0,34.0,30.38,SW,225,13.0,19.0,80,0.00,,,0.00,TxWx,2013-01-09 22:40:00,
2013-01-09 17:46:00,40.0,34.0,30.38,WSW,247,15.0,32.0,80,0.00,,,0.00,TxWx,2013-01-09 22:46:00,
2013-01-09 17:51:00,40.0,34.0,30.38,SW,225,8.0,17.0,80,0.00,,,0.00,TxWx,2013-01-09 22:51:00,
2013-01-09 17:57:00,40.0,34.0,30.38,SW,225,14.0,18.0,81,0.00,,,0.00,TxWx,2013-01-09 22:57:00,
2013-01-09 18:02:00,40.0,34.0,30.39,West,270,15.0,23.0,81,0.00,,,0.00,TxWx,2013-01-09 23:02:00,
2013-01-09 18:07:00,40.0,34.0,30.39,WSW,247,17.0,22.0,81,0.00,,,0.00,TxWx,2013-01-09 23:07:00,
2013-01-09 18:13:00,40.0,34.0,30.39,WSW,247,10.0,14.0,80,0.00,,,0.00,TxWx,2013-01-09 23:13:00,
2013-01-09 18:18:00,40.0,34.0,30.39,WSW,247,21.0,24.0,80,0.00,,,0.00,TxWx,2013-01-09 23:18:00,
2013-01-09 18:24:00,40.0,34.0,30.40,WSW,247,19.0,28.0,80,0.00,,,0.00,TxWx,2013-01-09 23:24:00,
2013-01-09 18:29:00,40.0,34.0,30.40,WSW,247,22.0,22.0,80,0.00,,,0.00,TxWx,2013-01-09 23:29:00,
2013-01-09 18:34:00,40.0,34.0,30.41,WSW,247,14.0,15.0,80,0.00,,,0.00,TxWx,2013-01-09 23:34:00,
2013-01-09 18:40:00,40.0,34.0,30.41,WSW,247,17.0,19.0,80,0.00,,,0.00,TxWx,2013-01-09 23:40:00,
2013-01-09 18:45:00,40.0,34.0,30.41,WSW,247,16.0,29.0,81,0.00,,,0.00,TxWx,2013-01-09 23:45:00,
2013-01-09 18:51:00,40.0,34.0,30.42,WSW,247,9.0,19.0,80,0.00,,,0.00,TxWx,2013-01-09 23:51:00,
2013-01-09 18:56:00,40.0,34.0,30.41,West,270,11.0,21.0,81,0.00,,,0.00,TxWx,2013-01-09 23:56:00,
2013-01-09 19:02:00,40.0,34.0,30.42,WSW,247,11.0,19.0,81,0.00,,,0.00,TxWx,2013-01-10 00:02:00,
2013-01-09 19:08:00,39.0,34.0,30.42,SW,225,10.0,18.0,81,0.00,,,0.00,TxWx,2013-01-10 00:08:00,
2013-01-09 19:13:00,40.0,35.0,30.43,WSW,247,16.0,16.0,81,0.00,,,0.00,TxWx,2013-01-10 00:13:00,
2013-01-09 19:18:00,39.0,34.0,30.43,SW,225,10.0,17.0,81,0.00,,,0.00,TxWx,2013-01-10 00:18:00,
2013-01-09 19:24:00,39.0,34.0,30.43,West,270,6.0,12.0,81,0.00,,,0.00,TxWx,2013-01-10 00:24:00,
2013-01-09 19:29:00,39.0,34.0,30.44,WSW,247,12.0,14.0,81,0.00,,,0.00,TxWx,2013-01-10 00:29:00,
2013-01-09 19:35:00,39.0,34.0,30.44,WSW,247,6.0,16.0,81,0.00,,,0.00,TxWx,2013-01-10 00:35:00,
2013-01-09 19:40:00,39.0,34.0,30.45,WNW,292,12.0,21.0,81,0.00,,,0.00,TxWx,2013-01-10 00:40:00,
2013-01-09 19:45:00,39.0,34.0,30.45,WSW,247,11.0,18.0,82,0.00,,,0.00,TxWx,2013-01-10 00:45:00,
2013-01-09 19:50:00,39.0,34.0,30.45,WSW,247,13.0,16.0,82,0.00,,,0.00,TxWx,2013-01-10 00:50:00,
2013-01-09 19:56:00,39.0,34.0,30.46,West,270,13.0,13.0,81,0.00,,,0.00,TxWx,2013-01-10 00:56:00,
2013-01-09 20:01:00,39.0,34.0,30.46,West,270,15.0,15.0,81,0.00,,,0.00,TxWx,2013-01-10 01:01:00,
2013-01-09 20:07:00,39.0,34.0,30.47,SW,225,8.0,21.0,81,0.00,,,0.00,TxWx,2013-01-10 01:07:00,
2013-01-09 20:12:00,39.0,34.0,30.48,WSW,247,6.0,10.0,81,0.00,,,0.00,TxWx,2013-01-10 01:12:00,
2013-01-09 20:18:00,39.0,34.0,30.48,WNW,292,8.0,21.0,82,0.00,,,0.00,TxWx,2013-01-10 01:18:00,
2013-01-09 20:24:00,39.0,34.0,30.49,WNW,292,5.0,14.0,81,0.00,,,0.00,TxWx,2013-01-10 01:24:00,
2013-01-09 20:29:00,39.0,34.0,30.49,SW,225,8.0,12.0,81,0.00,,,0.00,TxWx,2013-01-10 01:29:00,
2013-01-09 20:35:00,39.0,33.0,30.50,WSW,247,6.0,12.0,80,0.00,,,0.00,TxWx,2013-01-10 01:35:00,
2013-01-09 20:40:00,38.0,32.0,30.51,West,270,4.0,12.0,80,0.00,,,0.00,TxWx,2013-01-10 01:40:00,
2013-01-09 20:46:00,39.0,33.0,30.52,WSW,247,9.0,14.0,79,0.00,,,0.00,TxWx,2013-01-10 01:46:00,
2013-01-09 20:51:00,38.0,32.0,30.53,West,270,5.0,12.0,80,0.00,,,0.00,TxWx,2013-01-10 01:51:00,
2013-01-09 20:56:00,38.0,33.0,30.54,WSW,247,8.0,9.0,81,0.00,,,0.00,TxWx,2013-01-10 01:56:00,
2013-01-09 21:02:00,38.0,33.0,30.55,WSW,247,8.0,9.0,81,0.00,,,0.00,TxWx,2013-01-10 02:02:00,
2013-01-09 21:07:00,38.0,33.0,30.55,SW,225,5.0,11.0,82,0.00,,,0.00,TxWx,2013-01-10 02:07:00,
2013-01-09 21:12:00,38.0,33.0,30.56,West,270,10.0,10.0,82,0.00,,,0.00,TxWx,2013-01-10 02:12:00,
2013-01-09 21:18:00,38.0,33.0,30.56,WSW,247,7.0,13.0,82,0.00,,,0.00,TxWx,2013-01-10 02:18:00,
2013-01-09 21:23:00,38.0,33.0,30.57,West,270,10.0,10.0,82,0.00,,,0.00,TxWx,2013-01-10 02:23:00,
2013-01-09 21:29:00,38.0,33.0,30.57,WSW,247,5.0,6.0,82,0.00,,,0.00,TxWx,2013-01-10 02:29:00,
2013-01-09 21:34:00,38.0,33.0,30.57,West,270,6.0,9.0,81,0.00,,,0.00,TxWx,2013-01-10 02:34:00,
2013-01-09 21:40:00,38.0,33.0,30.58,WSW,247,4.0,9.0,81,0.00,,,0.00,TxWx,2013-01-10 02:40:00,
2013-01-09 21:45:00,38.0,32.0,30.58,WSW,247,5.0,6.0,80,0.00,,,0.00,TxWx,2013-01-10 02:45:00,
2013-01-09 21:50:00,38.0,32.0,30.58,WSW,247,6.0,13.0,79,0.00,,,0.00,TxWx,2013-01-10 02:50:00,
2013-01-09 21:56:00,38.0,31.0,30.58,WSW,247,7.0,7.0,78,0.00,,,0.00,TxWx,2013-01-10 02:56:00,
2013-01-09 22:01:00,38.0,31.0,30.59,WNW,292,3.0,9.0,78,0.00,,,0.00,TxWx,2013-01-10 03:01:00,
2013-01-09 22:06:00,38.0,31.0,30.59,WSW,247,5.0,7.0,78,0.00,,,0.00,TxWx,2013-01-10 03:06:00,
2013-01-09 22:11:00,38.0,30.0,30.59,NW,315,4.0,7.0,77,0.00,,,0.00,TxWx,2013-01-10 03:11:00,
2013-01-09 22:18:00,38.0,30.0,30.60,WSW,247,6.0,7.0,77,0.00,,,0.00,TxWx,2013-01-10 03:18:00,
2013-01-09 22:24:00,38.0,30.0,30.60,WSW,247,8.0,10.0,75,0.00,,,0.00,TxWx,2013-01-10 03:24:00,
2013-01-09 22:29:00,38.0,29.0,30.60,West,270,7.0,8.0,74,0.00,,,0.00,TxWx,2013-01-10 03:29:00,
2013-01-09 22:34:00,39.0,29.0,30.61,WSW,247,8.0,13.0,71,0.00,,,0.00,TxWx,2013-01-10 03:34:00,
2013-01-09 22:40:00,39.0,29.0,30.61,West,270,10.0,13.0,70,0.00,,,0.00,TxWx,2013-01-10 03:40:00,
2013-01-09 22:45:00,39.0,29.0,30.61,WSW,247,8.0,11.0,69,0.00,,,0.00,TxWx,2013-01-10 03:45:00,
2013-01-09 22:51:00,39.0,29.0,30.61,WSW,247,5.0,9.0,69,0.00,,,0.00,TxWx,2013-01-10 03:51:00,
2013-01-09 22:56:00,39.0,29.0,30.61,West,270,3.0,6.0,69,0.00,,,0.00,TxWx,2013-01-10 03:56:00,
2013-01-09 23:02:00,39.0,29.0,30.61,WSW,247,5.0,8.0,69,0.00,,,0.00,TxWx,2013-01-10 04:02:00,
2013-01-09 23:07:00,39.0,28.0,30.62,West,270,11.0,12.0,67,0.00,,,0.00,TxWx,2013-01-10 04:07:00,
2013-01-09 23:12:00,39.0,28.0,30.62,WSW,247,6.0,11.0,67,0.00,,,0.00,TxWx,2013-01-10 04:12:00,
2013-01-09 23:18:00,39.0,28.0,30.62,WSW,247,9.0,12.0,67,0.00,,,0.00,TxWx,2013-01-10 04:18:00,
2013-01-09 23:23:00,39.0,28.0,30.63,West,270,5.0,7.0,68,0.00,,,0.00,TxWx,2013-01-10 04:23:00,
2013-01-09 23:28:00,38.0,27.0,30.64,WNW,292,7.0,10.0,68,0.00,,,0.00,TxWx,2013-01-10 04:28:00,
2013-01-09 23:34:00,38.0,27.0,30.64,WSW,247,5.0,11.0,68,0.00,,,0.00,TxWx,2013-01-10 04:34:00,
2013-01-09 23:39:00,38.0,27.0,30.65,West,270,13.0,14.0,68,0.00,,,0.00,TxWx,2013-01-10 04:39:00,
2013-01-09 23:45:00,39.0,28.0,30.65,West,270,4.0,8.0,67,0.00,,,0.00,TxWx,2013-01-10 04:45:00,
2013-01-09 23:50:00,38.0,27.0,30.65,WSW,247,5.0,10.0,67,0.00,,,0.00,TxWx,2013-01-10 04:50:00,
2013-01-09 23:55:00,38.0,27.0,30.65,SW,225,3.0,5.0,68,0.00,,,0.00,TxWx,2013-01-10 04:55:00,